Location: Unspecified
(47.9110°N, 14.3980°E)
Time: 15:19:03
(UTC+00:00)

Geosat - Pass Details

Date: 06 August 2020
Orbit: 763 x 765 km, 108.0° (Epoch: 19 September)

Event Time Altitude Azimuth Distance (km) Brightness Sun altitude
Exits shadow 21:55:49 53° 212° (SSW) 941 4.2 -23.7°
Maximum altitude 21:56:29 57° 245° (WSW) 897 4.2 -23.7°
Drops below altitude 10° 22:01:27 10° 324° (NW) 2,311 7.4 -24.0°
Sets 22:03:47 0° 329° (NNW) 3,242 8.5 -24.1°
